| time (UTC) | temp C | wind direction | speed KPH | gust KPH | rain 1hr cm | rain 24hr cm | rain mn cm | humidity % | barometer mb |
| 20260503021525 | 13 | 21 | 4.8 | 9.7 | 0.00 | 0.00 | 0.00 | 58 | 1017.8 |
| 20260503021004 | 13 | 22 | 6.4 | 9.7 | 0.00 | 0.00 | 0.00 | 58 | 1017.9 |
| 20260503020504 | 13 | 21 | 4.8 | 4.8 | 0.00 | 0.00 | 0.00 | 58 | 1018.0 |
| 20260503020004 | 13 | 19 | 4.8 | 6.4 | 0.00 | 0.00 | 0.00 | 58 | 1018.1 |
| 20260503015504 | 13 | 17 | 6.4 | 8.0 | 0.00 | 0.00 | 0.00 | 58 | 1018.1 |
| 20260503015025 | 13 | 14 | 6.4 | 8.0 | 0.00 | 0.00 | 0.00 | 58 | 1018.0 |
| 20260503014504 | 13 | 14 | 4.8 | 8.0 | 0.00 | 0.00 | 0.00 | 57 | 1018.1 |
| 20260503014040 | 13 | 18 | 4.8 | 6.4 | 0.00 | 0.00 | 0.00 | 57 | 1018.1 |
| 20260503013525 | 13 | 15 | 6.4 | 6.4 | 0.00 | 0.00 | 0.00 | 57 | 1017.9 |
| 20260503013004 | 13 | 14 | 6.4 | 11.3 | 0.00 | 0.00 | 0.00 | 57 | 1018.0 |
| 20260503012504 | 13 | 20 | 8.0 | 11.3 | 0.00 | 0.00 | 0.00 | 57 | 1018.1 |
| 20260503012025 | 13 | 20 | 6.4 | 11.3 | 0.00 | 0.00 | 0.00 | 57 | 1018.3 |
| 20260503011504 | 13 | 21 | 4.8 | 6.4 | 0.00 | 0.00 | 0.00 | 57 | 1017.9 |
| 20260503011004 | 13 | 22 | 3.2 | 6.4 | 0.00 | 0.00 | 0.00 | 57 | 1018.1 |
| 20260503010504 | 13 | 19 | 3.2 | 6.4 | 0.00 | 0.00 | 0.00 | 57 | 1018.4 |
| 20260503010004 | 13 | 14 | 3.2 | 6.4 | 0.00 | 0.00 | 0.00 | 57 | 1018.4 |
| 20260503005504 | 13 | 18 | 4.8 | 6.4 | 0.00 | 0.00 | 0.00 | 57 | 1018.4 |
| 20260503005004 | 13 | 19 | 4.8 | 6.4 | 0.00 | 0.00 | 0.00 | 57 | 1018.5 |
| 20260503004504 | 13 | 22 | 4.8 | 6.4 | 0.00 | 0.00 | 0.00 | 57 | 1018.5 |
| 20260503004004 | 13 | 24 | 4.8 | 6.4 | 0.00 | 0.00 | 0.00 | 57 | 1018.6 |
| 20260503003516 | 13 | 19 | 3.2 | 4.8 | 0.00 | 0.00 | 0.00 | 58 | 1018.7 |
| 20260503003025 | 13 | 16 | 4.8 | 6.4 | 0.00 | 0.00 | 0.00 | 58 | 1018.7 |
| 20260503002525 | 13 | 12 | 4.8 | 6.4 | 0.00 | 0.00 | 0.00 | 58 | 1018.8 |
| 20260503002004 | 13 | 16 | 4.8 | 8.0 | 0.00 | 0.00 | 0.00 | 57 | 1018.8 |
| 20260503001504 | 13 | 17 | 4.8 | 8.0 | 0.00 | 0.00 | 0.00 | 57 | 1018.7 |
| 20260503001004 | 13 | 14 | 1.6 | 6.4 | 0.00 | 0.00 | 0.00 | 57 | 1018.9 |
| 20260503000504 | 13 | 0 | 0.0 | 0.0 | 0.00 | 0.00 | 0.00 | 56 | 1019.0 |
| 20260503000004 | 13 | 0 | 0.0 | 0.0 | 0.00 | 0.00 | 0.00 | 56 | 1018.9 |
| 20260502235504 | 13 | 0 | 0.0 | 0.0 | 0.00 | 0.00 | 0.00 | 55 | 1018.9 |
| 20260502235004 | 13 | 0 | 0.0 | 0.0 | 0.00 | 0.00 | 0.00 | 54 | 1019.0 |
| 20260502234504 | 13 | 0 | 0.0 | 0.0 | 0.00 | 0.00 | 0.00 | 54 | 1019.0 |
| 20260502234004 | 13 | 0 | 0.0 | 0.0 | 0.00 | 0.00 | 0.00 | 54 | 1019.1 |
| 20260502233504 | 13 | 0 | 0.0 | 0.0 | 0.00 | 0.00 | 0.00 | 53 | 1019.1 |
| 20260502233004 | 13 | 0 | 0.0 | 0.0 | 0.00 | 0.00 | 0.00 | 53 | 1019.1 |
| 20260502232504 | 14 | 360 | 0.0 | 3.2 | 0.00 | 0.00 | 0.00 | 53 | 1019.2 |
| 20260502232005 | 14 | 3 | 1.6 | 3.2 | 0.00 | 0.00 | 0.00 | 53 | 1019.2 |
| 20260502231505 | 14 | 5 | 1.6 | 3.2 | 0.00 | 0.00 | 0.00 | 53 | 1019.2 |
| 20260502231003 | 14 | 6 | 1.6 | 3.2 | 0.00 | 0.00 | 0.00 | 53 | 1019.2 |
| 20260502230503 | 14 | 8 | 1.6 | 3.2 | 0.00 | 0.00 | 0.00 | 53 | 1019.3 |
| 20260502230003 | 14 | 22 | 0.0 | 3.2 | 0.00 | 0.00 | 0.00 | 52 | 1019.2 |
| 20260502225503 | 14 | 0 | 0.0 | 0.0 | 0.00 | 0.00 | 0.00 | 51 | 1019.3 |
| 20260502225003 | 14 | 0 | 0.0 | 0.0 | 0.00 | 0.00 | 0.00 | 51 | 1019.4 |
| 20260502224503 | 14 | 0 | 0.0 | 0.0 | 0.00 | 0.00 | 0.00 | 51 | 1019.1 |
| 20260502224003 | 14 | 0 | 0.0 | 0.0 | 0.00 | 0.00 | 0.00 | 51 | 1019.2 |
| 20260502223524 | 14 | 0 | 0.0 | 0.0 | 0.00 | 0.00 | 0.00 | 51 | 1019.3 |
| 20260502223024 | 14 | 0 | 0.0 | 0.0 | 0.00 | 0.00 | 0.00 | 50 | 1019.3 |
| 20260502222524 | 15 | 0 | 0.0 | 0.0 | 0.00 | 0.00 | 0.00 | 50 | 1019.2 |
| 20260502222003 | 15 | 0 | 0.0 | 0.0 | 0.00 | 0.00 | 0.00 | 50 | 1019.3 |
| 20260502221524 | 15 | 0 | 0.0 | 0.0 | 0.00 | 0.00 | 0.00 | 50 | 1019.3 |
| 20260502221024 | 15 | 0 | 0.0 | 0.0 | 0.00 | 0.00 | 0.00 | 49 | 1019.5 |
| 20260502220524 | 15 | 0 | 0.0 | 0.0 | 0.00 | 0.00 | 0.00 | 48 | 1019.4 |
| 20260502220003 | 15 | 20 | 0.0 | 3.2 | 0.00 | 0.00 | 0.00 | 48 | 1019.3 |
| 20260502215503 | 15 | 24 | 1.6 | 3.2 | 0.00 | 0.00 | 0.00 | 47 | 1019.3 |
| 20260502215003 | 15 | 32 | 1.6 | 4.8 | 0.00 | 0.00 | 0.00 | 46 | 1019.2 |
| 20260502214503 | 15 | 35 | 1.6 | 4.8 | 0.00 | 0.00 | 0.00 | 46 | 1019.4 |
| 20260502214003 | 15 | 0 | 0.0 | 0.0 | 0.00 | 0.00 | 0.00 | 45 | 1019.3 |
| 20260502213503 | 15 | 22 | 0.0 | 1.6 | 0.00 | 0.00 | 0.00 | 45 | 1019.4 |
| 20260502213024 | 15 | 22 | 0.0 | 1.6 | 0.00 | 0.00 | 0.00 | 44 | 1019.4 |
| 20260502212503 | 15 | 0 | 0.0 | 0.0 | 0.00 | 0.00 | 0.00 | 44 | 1019.3 |
| 20260502212004 | 15 | 0 | 0.0 | 0.0 | 0.00 | 0.00 | 0.00 | 43 | 1019.5 |
| 20260502211524 | 16 | 0 | 0.0 | 0.0 | 0.00 | 0.00 | 0.00 | 43 | 1019.4 |
| 20260502211024 | 16 | 22 | 0.0 | 1.6 | 0.00 | 0.00 | 0.00 | 43 | 1019.4 |
| 20260502210503 | 16 | 22 | 0.0 | 1.6 | 0.00 | 0.00 | 0.00 | 42 | 1019.5 |
| 20260502210003 | 16 | 22 | 0.0 | 1.6 | 0.00 | 0.00 | 0.00 | 41 | 1019.5 |
| 20260502205503 | 16 | 0 | 0.0 | 0.0 | 0.00 | 0.00 | 0.00 | 41 | 1019.7 |
| 20260502205003 | 16 | 0 | 0.0 | 0.0 | 0.00 | 0.00 | 0.00 | 42 | 1019.4 |
| 20260502204503 | 16 | 0 | 0.0 | 0.0 | 0.00 | 0.00 | 0.00 | 41 | 1019.4 |
| 20260502204003 | 16 | 0 | 0.0 | 0.0 | 0.00 | 0.00 | 0.00 | 41 | 1019.4 |
| 20260502203503 | 16 | 0 | 0.0 | 0.0 | 0.00 | 0.00 | 0.00 | 41 | 1019.7 |
| 20260502203003 | 16 | 0 | 0.0 | 0.0 | 0.00 | 0.00 | 0.00 | 41 | 1019.6 |
| 20260502202503 | 16 | 0 | 0.0 | 0.0 | 0.00 | 0.00 | 0.00 | 41 | 1019.7 |
| 20260502202003 | 16 | 0 | 0.0 | 0.0 | 0.00 | 0.00 | 0.00 | 41 | 1019.6 |
| 20260502201503 | 16 | 0 | 0.0 | 0.0 | 0.00 | 0.00 | 0.00 | 41 | 1019.5 |
| 20260502201003 | 16 | 0 | 0.0 | 0.0 | 0.00 | 0.00 | 0.00 | 41 | 1019.5 |
| 20260502200503 | 17 | 0 | 0.0 | 0.0 | 0.00 | 0.00 | 0.00 | 41 | 1019.5 |
| 20260502200003 | 17 | 0 | 0.0 | 0.0 | 0.00 | 0.00 | 0.00 | 41 | 1019.6 |
| 20260502195524 | 17 | 0 | 0.0 | 0.0 | 0.00 | 0.00 | 0.00 | 41 | 1019.7 |
| 20260502195003 | 17 | 0 | 0.0 | 0.0 | 0.00 | 0.00 | 0.00 | 37 | 1019.4 |
| 20260502194503 | 17 | 0 | 0.0 | 0.0 | 0.00 | 0.00 | 0.00 | 37 | 1019.4 |
| 20260502194024 | 17 | 0 | 0.0 | 0.0 | 0.00 | 0.00 | 0.00 | 37 | 1019.4 |
| 20260502193503 | 18 | 0 | 0.0 | 0.0 | 0.00 | 0.00 | 0.00 | 37 | 1019.4 |
| 20260502193003 | 18 | 0 | 0.0 | 0.0 | 0.00 | 0.00 | 0.00 | 37 | 1019.3 |
| 20260502192524 | 18 | 0 | 0.0 | 0.0 | 0.00 | 0.00 | 0.00 | 38 | 1019.4 |
| 20260502192003 | 18 | 0 | 0.0 | 0.0 | 0.00 | 0.00 | 0.00 | 39 | 1019.3 |
| 20260502191503 | 17 | 0 | 0.0 | 0.0 | 0.00 | 0.00 | 0.00 | 39 | 1019.2 |
| 20260502191003 | 17 | 0 | 0.0 | 0.0 | 0.00 | 0.00 | 0.00 | 39 | 1019.2 |
| 20260502190524 | 17 | 0 | 0.0 | 0.0 | 0.00 | 0.00 | 0.00 | 40 | 1019.3 |
| 20260502190004 | 17 | 0 | 0.0 | 0.0 | 0.00 | 0.00 | 0.00 | 40 | 1019.3 |
| 20260502185503 | 17 | 0 | 0.0 | 0.0 | 0.00 | 0.00 | 0.00 | 39 | 1019.3 |
| 20260502185003 | 18 | 0 | 0.0 | 0.0 | 0.00 | 0.00 | 0.00 | 39 | 1019.1 |
| 20260502184503 | 18 | 0 | 0.0 | 0.0 | 0.00 | 0.00 | 0.00 | 38 | 1019.2 |
| 20260502184024 | 18 | 0 | 0.0 | 0.0 | 0.00 | 0.00 | 0.00 | 38 | 1019.4 |
| 20260502183503 | 18 | 0 | 0.0 | 0.0 | 0.00 | 0.00 | 0.00 | 37 | 1019.2 |
| 20260502183003 | 18 | 0 | 0.0 | 0.0 | 0.00 | 0.00 | 0.00 | 37 | 1019.4 |
| 20260502182503 | 18 | 0 | 0.0 | 0.0 | 0.00 | 0.00 | 0.00 | 37 | 1019.3 |
| 20260502182003 | 19 | 0 | 0.0 | 0.0 | 0.00 | 0.00 | 0.00 | 35 | 1019.2 |
| 20260502181503 | 19 | 0 | 0.0 | 0.0 | 0.00 | 0.00 | 0.00 | 35 | 1019.1 |
| 20260502181003 | 20 | 0 | 0.0 | 0.0 | 0.00 | 0.00 | 0.00 | 35 | 1019.0 |
| 20260502180503 | 20 | 0 | 0.0 | 0.0 | 0.00 | 0.00 | 0.00 | 34 | 1019.1 |
| 20260502170503 | 22 | 255 | 6.4 | 8.0 | 0.00 | 0.00 | 0.00 | 32 | 1019.0 |
| 20260502164003 | 22 | 238 | 3.2 | 8.0 | 0.00 | 0.00 | 0.00 | 30 | 1019.1 |
| 20260502163503 | 22 | 240 | 4.8 | 8.0 | 0.00 | 0.00 | 0.00 | 30 | 1019.1 |
| 20260502163003 | 22 | 236 | 4.8 | 11.3 | 0.00 | 0.00 | 0.00 | 30 | 1019.1 |
| 20260502162503 | 22 | 215 | 4.8 | 11.3 | 0.00 | 0.00 | 0.00 | 30 | 1019.2 |
| 20260502162003 | 22 | 199 | 4.8 | 6.4 | 0.00 | 0.00 | 0.00 | 30 | 1019.2 |
| 20260502161503 | 22 | 229 | 6.4 | 12.9 | 0.00 | 0.00 | 0.00 | 30 | 1019.4 |
| 20260502161003 | 22 | 245 | 4.8 | 12.9 | 0.00 | 0.00 | 0.00 | 30 | 1019.3 |
| 20260502160503 | 22 | 343 | 3.2 | 6.4 | 0.00 | 0.00 | 0.00 | 30 | 1019.5 |
| 20260502152003 | 22 | 161 | 6.4 | 11.3 | 0.00 | 0.00 | 0.00 | 30 | 1019.7 |
| 20260502151503 | 22 | 211 | 8.0 | 12.9 | 0.00 | 0.00 | 0.00 | 30 | 1019.8 |
| 20260502151003 | 22 | 268 | 8.0 | 12.9 | 0.00 | 0.00 | 0.00 | 31 | 1019.8 |
| 20260502150503 | 22 | 281 | 6.4 | 8.0 | 0.00 | 0.00 | 0.00 | 31 | 1019.7 |
| 20260502130503 | 21 | 249 | 9.7 | 16.1 | 0.00 | 0.00 | 0.00 | 35 | 1021.5 |
| 20260502123503 | 21 | 300 | 9.7 | 12.9 | 0.00 | 0.00 | 0.00 | 35 | 1021.8 |
| 20260502123003 | 21 | 268 | 8.0 | 9.7 | 0.00 | 0.00 | 0.00 | 35 | 1021.7 |
| 20260502122503 | 21 | 253 | 8.0 | 9.7 | 0.00 | 0.00 | 0.00 | 36 | 1021.9 |
| 20260502122024 | 21 | 277 | 6.4 | 9.7 | 0.00 | 0.00 | 0.00 | 36 | 1022.1 |
| 20260502121524 | 21 | 291 | 4.8 | 9.7 | 0.00 | 0.00 | 0.00 | 37 | 1022.1 |
| 20260502121003 | 21 | 310 | 8.0 | 9.7 | 0.00 | 0.00 | 0.00 | 36 | 1022.2 |
| 20260502120503 | 21 | 315 | 8.0 | 9.7 | 0.00 | 0.00 | 0.00 | 37 | 1022.2 |
| 20260502115503 | 21 | 325 | 4.8 | 8.0 | 0.00 | 0.00 | 0.00 | 38 | 1022.4 |
| 20260502115003 | 21 | 327 | 4.8 | 8.0 | 0.00 | 0.00 | 0.00 | 37 | 1022.5 |
| 20260502114503 | 21 | 295 | 4.8 | 12.9 | 0.00 | 0.00 | 0.00 | 38 | 1022.5 |
| 20260502114003 | 21 | 281 | 4.8 | 12.9 | 0.00 | 0.00 | 0.00 | 39 | 1022.5 |
| 20260502113003 | 21 | 255 | 9.7 | 14.5 | 0.00 | 0.00 | 0.00 | 37 | 1022.8 |
| 20260502112503 | 21 | 248 | 6.4 | 11.3 | 0.00 | 0.00 | 0.00 | 38 | 1022.8 |
| 20260502112003 | 21 | 281 | 1.6 | 8.0 | 0.00 | 0.00 | 0.00 | 39 | 1022.8 |
| 20260502111524 | 20 | 224 | 1.6 | 12.9 | 0.00 | 0.00 | 0.00 | 40 | 1023.0 |
| 20260502111003 | 20 | 260 | 6.4 | 12.9 | 0.00 | 0.00 | 0.00 | 39 | 1023.0 |
| 20260502110524 | 20 | 279 | 8.0 | 9.7 | 0.00 | 0.00 | 0.00 | 39 | 1023.1 |
| 20260502110003 | 20 | 335 | 6.4 | 11.3 | 0.00 | 0.00 | 0.00 | 39 | 1023.2 |
| 20260502105524 | 20 | 205 | 6.4 | 11.3 | 0.00 | 0.00 | 0.00 | 38 | 1023.3 |
| 20260502105003 | 20 | 224 | 11.3 | 17.7 | 0.00 | 0.00 | 0.00 | 38 | 1023.2 |
| 20260502104503 | 20 | 240 | 9.7 | 17.7 | 0.00 | 0.00 | 0.00 | 39 | 1023.4 |
| 20260502104024 | 20 | 263 | 3.2 | 17.7 | 0.00 | 0.00 | 0.00 | 40 | 1023.4 |
| 20260502103503 | 20 | 284 | 4.8 | 16.1 | 0.00 | 0.00 | 0.00 | 40 | 1023.5 |
| 20260502103003 | 19 | 44 | 9.7 | 16.1 | 0.00 | 0.00 | 0.00 | 40 | 1023.5 |
| 20260502102503 | 19 | 91 | 8.0 | 12.9 | 0.00 | 0.00 | 0.00 | 40 | 1023.6 |
| 20260502102003 | 19 | 166 | 9.7 | 17.7 | 0.00 | 0.00 | 0.00 | 40 | 1023.9 |
| 20260502101503 | 19 | 171 | 9.7 | 17.7 | 0.00 | 0.00 | 0.00 | 39 | 1023.9 |
| 20260502101024 | 19 | 190 | 6.4 | 12.9 | 0.00 | 0.00 | 0.00 | 40 | 1023.7 |
| 20260502100524 | 19 | 178 | 4.8 | 12.9 | 0.00 | 0.00 | 0.00 | 40 | 1023.7 |
| 20260502091503 | 18 | 174 | 4.8 | 12.9 | 0.00 | 0.00 | 0.00 | 42 | 1024.4 |
| 20260502091003 | 18 | 171 | 3.2 | 12.9 | 0.00 | 0.00 | 0.00 | 42 | 1024.5 |
| 20260502090503 | 18 | 175 | 0.0 | 6.4 | 0.00 | 0.00 | 0.00 | 43 | 1024.5 |
| 20260502071524 | 15 | 0 | 0.0 | 0.0 | 0.00 | 0.00 | 0.00 | 60 | 1024.8 |
| 20260502071003 | 15 | 0 | 0.0 | 0.0 | 0.00 | 0.00 | 0.00 | 60 | 1024.8 |
| 20260502070503 | 15 | 0 | 0.0 | 0.0 | 0.00 | 0.00 | 0.00 | 60 | 1024.8 |
| 20260502070003 | 15 | 0 | 0.0 | 0.0 | 0.00 | 0.00 | 0.00 | 60 | 1024.8 |
| 20260502065503 | 15 | 0 | 0.0 | 0.0 | 0.00 | 0.00 | 0.00 | 61 | 1024.9 |
| 20260502065003 | 15 | 0 | 0.0 | 0.0 | 0.00 | 0.00 | 0.00 | 61 | 1025.0 |
| 20260502064524 | 15 | 9 | 0.0 | 1.6 | 0.00 | 0.00 | 0.00 | 61 | 1024.9 |
| 20260502064024 | 15 | 3 | 0.0 | 1.6 | 0.00 | 0.00 | 0.00 | 61 | 1024.9 |
| 20260502063524 | 14 | 3 | 0.0 | 1.6 | 0.00 | 0.00 | 0.00 | 62 | 1024.8 |
| 20260502063003 | 14 | 6 | 0.0 | 1.6 | 0.00 | 0.00 | 0.00 | 62 | 1025.0 |
| 20260502062524 | 14 | 360 | 0.0 | 1.6 | 0.00 | 0.00 | 0.00 | 62 | 1025.0 |
| 20260502062003 | 13 | 360 | 0.0 | 1.6 | 0.00 | 0.00 | 0.00 | 62 | 1024.8 |
| 20260502061503 | 13 | 7 | 1.6 | 4.8 | 0.00 | 0.00 | 0.00 | 63 | 1024.8 |
| 20260502061024 | 13 | 7 | 1.6 | 4.8 | 0.00 | 0.00 | 0.00 | 63 | 1024.6 |
| 20260502060503 | 13 | 0 | 0.0 | 0.0 | 0.00 | 0.00 | 0.00 | 64 | 1024.8 |
| 20260502060024 | 13 | 360 | 0.0 | 1.6 | 0.00 | 0.00 | 0.00 | 64 | 1024.6 |
| 20260502055518 | 12 | 360 | 0.0 | 1.6 | 0.00 | 0.00 | 0.00 | 64 | 1024.8 |
| 20260502055003 | 12 | 360 | 0.0 | 1.6 | 0.00 | 0.00 | 0.00 | 65 | 1024.8 |
| 20260502054503 | 12 | 0 | 0.0 | 0.0 | 0.00 | 0.00 | 0.00 | 70 | 1025.0 |
| 20260502054003 | 12 | 347 | 0.0 | 3.2 | 0.00 | 0.00 | 0.00 | 70 | 1024.7 |
| 20260502053503 | 12 | 3 | 1.6 | 3.2 | 0.00 | 0.00 | 0.00 | 70 | 1024.8 |
| 20260502053024 | 11 | 8 | 1.6 | 3.2 | 0.00 | 0.00 | 0.00 | 70 | 1024.9 |
| 20260502052503 | 11 | 360 | 1.6 | 4.8 | 0.00 | 0.00 | 0.00 | 70 | 1024.9 |
| 20260502052003 | 11 | 1 | 3.2 | 4.8 | 0.00 | 0.00 | 0.00 | 70 | 1024.7 |
| 20260502051503 | 11 | 1 | 1.6 | 4.8 | 0.00 | 0.00 | 0.00 | 70 | 1024.6 |
| 20260502051024 | 10 | 360 | 3.2 | 3.2 | 0.00 | 0.00 | 0.00 | 71 | 1024.6 |
| 20260502050503 | 10 | 2 | 1.6 | 3.2 | 0.00 | 0.00 | 0.00 | 71 | 1024.9 |
| 20260502050003 | 10 | 9 | 0.0 | 3.2 | 0.00 | 0.00 | 0.00 | 71 | 1024.8 |
| 20260502045503 | 10 | 360 | 0.0 | 3.2 | 0.00 | 0.00 | 0.00 | 71 | 1024.7 |
| 20260502045003 | 10 | 360 | 1.6 | 3.2 | 0.00 | 0.00 | 0.00 | 71 | 1024.7 |
| 20260502044503 | 10 | 3 | 0.0 | 3.2 | 0.00 | 0.00 | 0.00 | 71 | 1024.6 |
| 20260502044003 | 9 | 22 | 0.0 | 1.6 | 0.00 | 0.00 | 0.00 | 70 | 1024.7 |
| 20260502043503 | 9 | 360 | 0.0 | 3.2 | 0.00 | 0.00 | 0.00 | 70 | 1024.7 |
| 20260502043003 | 9 | 360 | 0.0 | 3.2 | 0.00 | 0.00 | 0.00 | 70 | 1024.7 |
| 20260502042524 | 9 | 9 | 0.0 | 3.2 | 0.00 | 0.00 | 0.00 | 70 | 1024.8 |
| 20260502042003 | 9 | 22 | 0.0 | 3.2 | 0.00 | 0.00 | 0.00 | 70 | 1024.6 |
| 20260502041503 | 9 | 22 | 0.0 | 3.2 | 0.00 | 0.00 | 0.00 | 70 | 1024.6 |
| 20260502041003 | 9 | 0 | 0.0 | 0.0 | 0.00 | 0.00 | 0.00 | 70 | 1024.6 |
| 20260502040503 | 10 | 0 | 0.0 | 0.0 | 0.00 | 0.00 | 0.00 | 70 | 1024.6 |
| 20260502040003 | 10 | 4 | 0.0 | 1.6 | 0.00 | 0.00 | 0.00 | 70 | 1024.6 |
| 20260502035503 | 10 | 4 | 0.0 | 1.6 | 0.00 | 0.00 | 0.00 | 70 | 1024.6 |
| 20260502035003 | 10 | 0 | 0.0 | 0.0 | 0.00 | 0.00 | 0.00 | 69 | 1024.5 |
| 20260502034503 | 10 | 0 | 0.0 | 0.0 | 0.00 | 0.00 | 0.00 | 69 | 1024.4 |
| 20260502034024 | 10 | 0 | 0.0 | 0.0 | 0.00 | 0.00 | 0.00 | 69 | 1024.5 |
| 20260502033503 | 10 | 360 | 0.0 | 3.2 | 0.00 | 0.00 | 0.00 | 69 | 1024.6 |
| 20260502033003 | 10 | 360 | 0.0 | 3.2 | 0.00 | 0.00 | 0.00 | 68 | 1024.5 |
| 20260502032524 | 10 | 11 | 1.6 | 6.4 | 0.00 | 0.00 | 0.00 | 68 | 1024.3 |
| 20260502032003 | 10 | 16 | 1.6 | 6.4 | 0.00 | 0.00 | 0.00 | 68 | 1024.4 |
| 20260502031503 | 10 | 21 | 1.6 | 3.2 | 0.00 | 0.00 | 0.00 | 68 | 1024.6 |
| 20260502031024 | 10 | 22 | 0.0 | 3.2 | 0.00 | 0.00 | 0.00 | 67 | 1024.5 |
| 20260502030503 | 10 | 4 | 0.0 | 3.2 | 0.00 | 0.00 | 0.00 | 67 | 1024.5 |
| 20260502030003 | 10 | 13 | 1.6 | 3.2 | 0.00 | 0.00 | 0.00 | 66 | 1024.6 |
| 20260502025503 | 10 | 16 | 1.6 | 3.2 | 0.00 | 0.00 | 0.00 | 66 | 1024.6 |
| 20260502025003 | 10 | 5 | 1.6 | 3.2 | 0.00 | 0.00 | 0.00 | 65 | 1024.7 |
| 20260502024503 | 10 | 6 | 3.2 | 3.2 | 0.00 | 0.00 | 0.00 | 65 | 1024.3 |
| 20260502024003 | 10 | 8 | 1.6 | 3.2 | 0.00 | 0.00 | 0.00 | 64 | 1024.5 |
| 20260502023503 | 10 | 10 | 0.0 | 3.2 | 0.00 | 0.00 | 0.00 | 64 | 1024.5 |
| 20260502023003 | 10 | 360 | 0.0 | 1.6 | 0.00 | 0.00 | 0.00 | 63 | 1024.6 |
| 20260502022503 | 10 | 360 | 0.0 | 1.6 | 0.00 | 0.00 | 0.00 | 63 | 1024.4 |
| 20260502022003 | 10 | 360 | 0.0 | 3.2 | 0.00 | 0.00 | 0.00 | 62 | 1024.5 |